Location: Amsterdam
(30.7274°N, 84.4357°W)
Time: 19:21:46
(UTC+00:00)

Altair - Pass Details

Date: 07 August 2024
Orbit: 1501 x 1682 km, 47.2° (Epoch: 07 September)

Event Time Altitude Azimuth Distance (km) Brightness Sun altitude
Rises 19:44:22 0° 265° (W) 4,862 10.6 58.8°
Reaches altitude 10° 19:47:54 10° 273° (W) 3,852 10.2 58.1°
Maximum altitude 19:56:48 38° 339° (NNW) 2,257 8.9 56.3°
Drops below altitude 10° 20:05:26 10° 45° (NE) 3,724 9.3 54.5°
Sets 20:08:48 0° 54° (NE) 4,686 9.7 53.8°
